Wendover, UT

2:03 PM MDT on September 19, 2017 (GMT -0600)
Wendover

Weather History for KENV - October, 2011

Change the Weather History Date:

Thursday, October 6, 2011

  Actual Average Record
Temperature  
Mean Temperature 45 °F -  
Max Temperature 51 °F 66 °F 83 °F (1960)
Min Temperature 39 °F 45 °F 33 °F (2013)
Degree Days  
Heating Degree Days 20    
Moisture  
Dew Point 29 °F    
Average Humidity 53    
Maximum Humidity 76    
Minimum Humidity 38    
Precipitation  
Precipitation 0.09 in - - ()
Sea Level Pressure  
Sea Level Pressure 29.71 in    
Wind  
Wind Speed 12 mph (NW)    
Max Wind Speed 22 mph    
Max Gust Speed 31 mph    
Visibility 10 miles    
Events      
Averages and records for this station are not official NWS values.
T = Trace of Precipitation, MM = Missing Value Source: NWS Daily Summary

Daily Weather History Graph

Daily Weather History Graph

Search for Another Location

Airport or City:

Trip Planner

Search our weather history database for the weather conditions in past years. The results will help you decide how hot, cold, wet, or windy it might be!

Date:

Astronomy

Oct. 06, 2011 Rise Set
Actual Time 7:37 AM MDT 7:10 PM MDT
Civil Twilight 7:10 AM MDT 7:37 PM MDT
Nautical Twilight 6:38 AM MDT 8:09 PM MDT
Astronomical Twilight 6:06 AM MDT 8:41 PM MDT
Moon 4:27 PM MDT (10/6) 2:28 AM MDT (10/6)
Length of Visible Light 12h 27m
Length of Day
11h 32m
Waxing Gibbous, 76% of the Moon is Illuminated
Oct 6
Waxing Gibbous
Oct 11
Full
Oct 19
Last Quarter
Oct 26
New
Nov 2
First Quarter

Hourly Weather History & Observations

Time (MDT) Temp. Windchill Dew Point Humidity Pressure Visibility Wind Dir Wind Speed Gust Speed Precip Events Conditions
12:15 AM 42.8 °F 36.2 °F 33.8 °F 70% 29.64 in 10.0 mi WNW 12.7 mph - N/A   Overcast
12:35 AM 42.8 °F 35.8 °F 33.8 °F 70% 29.64 in 10.0 mi WNW 13.8 mph - N/A   Mostly Cloudy
12:55 AM 42.8 °F 37.5 °F 33.8 °F 70% 29.65 in 10.0 mi WNW 9.2 mph - N/A   Overcast
1:15 AM 42.8 °F 37.5 °F 35.6 °F 76% 29.64 in 10.0 mi West 9.2 mph - N/A   Overcast
1:35 AM 42.8 °F 38.0 °F 35.6 °F 76% 29.64 in 10.0 mi West 8.1 mph - N/A   Overcast
1:55 AM 42.8 °F 38.0 °F 35.6 °F 76% 29.65 in 10.0 mi West 8.1 mph - N/A   Overcast
2:15 AM 42.8 °F 39.3 °F 35.6 °F 76% 29.65 in 10.0 mi West 5.8 mph - N/A   Overcast
2:35 AM 42.8 °F 39.3 °F 35.6 °F 76% 29.65 in 10.0 mi WNW 5.8 mph - N/A   Overcast
2:55 AM 44.6 °F 38.8 °F 32.0 °F 61% 29.64 in 10.0 mi NNW 11.5 mph - N/A   Mostly Cloudy
3:15 AM 42.8 °F 36.6 °F 33.8 °F 70% 29.63 in 10.0 mi NW 11.5 mph - N/A   Overcast
3:35 AM 42.8 °F 36.6 °F 32.0 °F 66% 29.64 in 10.0 mi NW 11.5 mph 16.1 mph N/A   Overcast
3:55 AM 44.6 °F 40.7 °F 30.2 °F 57% 29.64 in 10.0 mi NNW 6.9 mph - N/A   Overcast
4:15 AM 42.8 °F 37.5 °F 32.0 °F 66% 29.64 in 10.0 mi WNW 9.2 mph - N/A   Overcast
4:35 AM 42.8 °F 36.6 °F 30.2 °F 61% 29.64 in 10.0 mi NNW 11.5 mph 17.3 mph N/A   Overcast
4:55 AM 42.8 °F 35.4 °F 30.2 °F 61% 29.64 in 10.0 mi NNW 15.0 mph - N/A   Overcast
5:15 AM 42.8 °F 36.2 °F 30.2 °F 61% 29.64 in 10.0 mi NW 12.7 mph 18.4 mph N/A   Overcast
5:35 AM 42.8 °F 35.8 °F 30.2 °F 61% 29.64 in 10.0 mi NW 13.8 mph 18.4 mph N/A   Mostly Cloudy
5:55 AM 42.8 °F 36.6 °F 30.2 °F 61% 29.64 in 10.0 mi NW 11.5 mph - N/A   Overcast
6:15 AM 42.8 °F 35.8 °F 28.4 °F 57% 29.64 in 10.0 mi NNW 13.8 mph 19.6 mph N/A   Mostly Cloudy
6:35 AM 42.8 °F 35.4 °F 28.4 °F 57% 29.65 in 10.0 mi NW 15.0 mph 20.7 mph N/A   Scattered Clouds
6:55 AM 42.8 °F 35.4 °F 28.4 °F 57% 29.65 in 10.0 mi NNW 15.0 mph 23.0 mph N/A   Scattered Clouds
7:15 AM 42.8 °F 38.0 °F 28.4 °F 57% 29.66 in 10.0 mi NW 8.1 mph - N/A   Scattered Clouds
7:55 AM 39.2 °F 34.2 °F 28.4 °F 65% 29.66 in 10.0 mi WNW 6.9 mph - N/A   Partly Cloudy
8:15 AM 42.8 °F 40.1 °F 26.6 °F 53% 29.67 in 10.0 mi WNW 4.6 mph - N/A   Clear
8:55 AM 42.8 °F 39.3 °F 26.6 °F 53% 29.68 in 10.0 mi NNW 5.8 mph - N/A   Clear
9:35 AM 44.6 °F 38.1 °F 28.4 °F 53% 29.69 in 10.0 mi WNW 13.8 mph - N/A   Clear
9:55 AM 44.6 °F 36.6 °F 28.4 °F 53% 29.69 in 10.0 mi WNW 19.6 mph - N/A   Clear
10:15 AM 44.6 °F 36.9 °F 28.4 °F 53% 29.70 in 10.0 mi NW 18.4 mph 25.3 mph N/A   Clear
10:35 AM 46.4 °F 39.8 °F 28.4 °F 50% 29.71 in 10.0 mi WNW 16.1 mph 23.0 mph N/A   Clear
10:55 AM 46.4 °F 40.4 °F 28.4 °F 50% 29.71 in 10.0 mi NW 13.8 mph 21.9 mph N/A   Clear
11:15 AM 48.2 °F - 28.4 °F 46% 29.71 in 10.0 mi NW 18.4 mph 25.3 mph N/A   Clear
11:35 AM 48.2 °F - 28.4 °F 46% 29.72 in 10.0 mi WNW 21.9 mph 28.8 mph N/A   Clear
11:55 AM 48.2 °F - 26.6 °F 43% 29.72 in 10.0 mi NW 21.9 mph 31.1 mph N/A   Clear
12:15 PM 48.2 °F - 26.6 °F 43% 29.73 in 10.0 mi NW 18.4 mph 24.2 mph N/A   Mostly Cloudy
12:35 PM 48.2 °F - 26.6 °F 43% 29.73 in 10.0 mi NNW 18.4 mph 26.5 mph N/A   Overcast
12:55 PM 48.2 °F - 26.6 °F 43% 29.73 in 10.0 mi NNW 19.6 mph 27.6 mph N/A   Overcast
1:15 PM 48.2 °F - 26.6 °F 43% 29.74 in 10.0 mi NW 18.4 mph 27.6 mph N/A   Overcast
1:35 PM 48.2 °F - 26.6 °F 43% 29.74 in 10.0 mi NNW 16.1 mph 23.0 mph N/A   Overcast
1:55 PM 48.2 °F - 26.6 °F 43% 29.74 in 10.0 mi NNW 12.7 mph - N/A   Mostly Cloudy
2:15 PM 48.2 °F - 26.6 °F 43% 29.74 in 10.0 mi NNW 11.5 mph 17.3 mph N/A   Overcast
2:35 PM 48.2 °F - 28.4 °F 46% 29.75 in 10.0 mi NW 12.7 mph 17.3 mph N/A   Overcast
2:55 PM 48.2 °F - 26.6 °F 43% 29.76 in 10.0 mi NW 16.1 mph 20.7 mph N/A   Overcast
3:15 PM 48.2 °F - 26.6 °F 43% 29.77 in 10.0 mi NNW 16.1 mph - N/A   Overcast
3:35 PM 48.2 °F - 28.4 °F 46% 29.77 in 10.0 mi WNW 15.0 mph - N/A   Overcast
3:55 PM 51.8 °F - 26.6 °F 38% 29.77 in 10.0 mi West 10.4 mph - N/A   Mostly Cloudy
4:15 PM 51.8 °F - 28.4 °F 41% 29.78 in 10.0 mi West 17.3 mph - N/A   Mostly Cloudy
4:35 PM 51.8 °F - 28.4 °F 41% 29.78 in 10.0 mi WNW 11.5 mph - N/A   Mostly Cloudy
4:55 PM 51.8 °F - 26.6 °F 38% 29.79 in 10.0 mi NW 15.0 mph - N/A   Overcast
5:15 PM 50.0 °F - 26.6 °F 40% 29.79 in 10.0 mi NW 12.7 mph - N/A   Mostly Cloudy
5:35 PM 48.2 °F - 26.6 °F 43% 29.79 in 10.0 mi WNW 11.5 mph - N/A   Mostly Cloudy
5:55 PM 51.8 °F - 26.6 °F 38% 29.79 in 10.0 mi West 12.7 mph - N/A   Scattered Clouds
6:15 PM 51.8 °F - 26.6 °F 38% 29.80 in 10.0 mi West 11.5 mph - N/A   Scattered Clouds
6:35 PM 50.0 °F - 26.6 °F 40% 29.81 in 10.0 mi WNW 11.5 mph 16.1 mph N/A   Overcast
6:55 PM 48.2 °F - 26.6 °F 43% 29.82 in 10.0 mi WNW 10.4 mph 17.3 mph N/A   Mostly Cloudy
7:15 PM 48.2 °F - 28.4 °F 46% 29.82 in 10.0 mi WSW 10.4 mph - N/A   Overcast
7:35 PM 46.4 °F 41.1 °F 30.2 °F 53% 29.83 in 10.0 mi West 11.5 mph - N/A   Overcast
8:15 PM 46.4 °F 41.5 °F 30.2 °F 53% 29.85 in 10.0 mi NW 10.4 mph - N/A   Overcast
8:35 PM 46.4 °F 41.5 °F 28.4 °F 50% 29.86 in 10.0 mi NNW 10.4 mph - N/A   Overcast
8:55 PM 46.4 °F 41.5 °F 30.2 °F 53% 29.87 in 10.0 mi WNW 10.4 mph - N/A   Overcast
9:15 PM 44.6 °F 41.4 °F 30.2 °F 57% 29.88 in 10.0 mi West 5.8 mph - N/A   Overcast
9:35 PM 46.4 °F 43.5 °F 30.2 °F 53% 29.88 in 10.0 mi West 5.8 mph - N/A   Overcast
9:55 PM 44.6 °F 42.2 °F 30.2 °F 57% 29.88 in 10.0 mi WNW 4.6 mph - N/A   Overcast
10:15 PM 46.4 °F 42.9 °F 30.2 °F 53% 29.88 in 10.0 mi WNW 6.9 mph - N/A   Overcast
10:35 PM 44.6 °F 38.8 °F 28.4 °F 53% 29.88 in 10.0 mi NW 11.5 mph - N/A   Mostly Cloudy
10:55 PM 44.6 °F 40.7 °F 30.2 °F 57% 29.89 in 10.0 mi West 6.9 mph - N/A   Overcast
11:15 PM 44.6 °F 39.2 °F 28.4 °F 53% 29.89 in 10.0 mi WNW 10.4 mph - N/A   Overcast
11:35 PM 44.6 °F 39.7 °F 28.4 °F 53% 29.89 in 10.0 mi West 9.2 mph - N/A   Overcast
11:55 PM 44.6 °F 40.7 °F 28.4 °F 53% 29.89 in 10.0 mi West 6.9 mph - N/A   Overcast